1508738400.76,28939,10.94,72720.0,-4.57,-6.01,-5.89,0,*5C
1508738402.0,28940,10.94,72722.8,-4.57,-5.77,-5.65,0,*52
1508738403.27,28941,10.94,72714.0,-4.59,-5.81,-5.69,0,*58
1508738404.51,28942,10.94,72710.8,-4.57,-5.77,-5.73,0,*57
1508738405.77,28943,10.94,72708.3,-4.59,-5.81,-5.77,0,*55
1508738407.03,28944,10.94,72710.3,-4.59,-5.89,-5.77,0,*5A
1508738408.28,28945,10.94,72716.0,-4.59,-6.01,-5.81,0,*51
1508738409.54,28946,10.94,72716.8,-4.59,-5.89,-5.77,0,*58
1508738410.78,28947,10.94,72718.5,-4.59,-6.01,-5.89,0,*5B
1508738412.03,28948,10.94,72724.5,-4.61,-5.93,-5.77,0,*56
1508738413.27,28949,10.94,72724.3,-4.57,-5.85,-5.73,0,*51
1508738414.54,28950,10.94,72726.8,-4.59,-5.89,-5.77,0,*5F
1508738415.8,28951,10.94,72722.8,-4.59,-5.77,-5.69,0,*50
1508738417.07,28952,10.94,72718.5,-4.59,-5.81,-5.73,0,*51
1508738418.31,28953,10.94,72718.5,-4.59,-6.01,-5.77,0,*5F
1508738419.55,28954,10.94,72724.0,-4.57,-5.77,-5.61,0,*53
1508738420.79,28955,10.94,72724.0,-4.59,-6.01,-5.77,0,*59
1508738422.03,28956,10.94,72724.0,-4.59,-6.01,-5.89,0,*5B
1508738423.3,28957,10.94,72730.0,-4.59,-5.93,-5.81,0,*5A
1508738424.55,28958,10.94,72724.5,-4.59,-6.01,-5.93,0,*5E
1508738425.78,28959,10.94,72718.0,-4.59,-6.27,-6.05,0,*57
1508738427.02,28960,10.94,72714.3,-4.59,-6.19,-6.05,0,*50
1508738428.28,28961,10.94,72708.3,-4.59,-5.89,-5.81,0,*54
1508738429.55,28962,10.94,72706.8,-4.59,-5.81,-5.69,0,*59
1508738430.77,28963,10.94,72714.5,-4.61,-6.13,-5.93,0,*5E
1508738432.02,28964,10.94,72712.3,-4.61,-5.89,-5.69,0,*5C
1508738433.29,28965,10.94,72718.8,-4.59,-5.89,-5.81,0,*50
1508738434.53,28966,10.94,72716.0,-4.59,-6.01,-5.93,0,*53
1508738435.77,28967,10.94,72718.5,-4.59,-6.31,-6.27,0,*5D
1508738436.96,28968,10.94,72720.0,-4.61,-6.09,-6.05,0,*52
1508738438.18,28969,10.94,72718.5,-4.61,-6.05,-5.89,0,*58
1508738439.41,28970,10.94,72716.0,-4.61,-6.31,-6.19,0,*5D
1508738440.63,28971,10.94,72726.8,-4.61,-6.13,-5.89,0,*56
1508738441.87,28972,10.94,72730.5,-4.63,-6.19,-6.05,0,*5A
1508738443.11,28973,10.94,72724.0,-4.63,-6.05,-5.85,0,*5D
1508738444.35,28974,10.94,72728.0,-4.63,-6.05,-5.93,0,*5D
1508738445.54,28975,10.94,72726.8,-4.61,-6.13,-6.01,0,*51
1508738446.79,28976,10.94,72720.3,-4.61,-6.27,-6.19,0,*5C
1508738448.01,28977,10.94,72708.0,-4.63,-6.35,-6.31,0,*56
1508738449.24,28978,10.94,72702.0,-4.63,-6.23,-6.05,0,*59
1508738450.49,28979,10.94,72700.5,-4.61,-5.93,-5.81,0,*5D
1508738451.76,28980,10.94,72710.3,-4.63,-5.93,-5.73,0,*54
1508738452.98,28981,10.94,72694.8,-4.65,-6.05,-5.93,0,*51
1508738454.2,28982,10.94,72696.3,-4.65,-6.19,-6.05,0,*53
1508738455.42,28983,10.94,72704.5,-4.65,-5.97,-5.93,0,*5B
1508738456.64,28984,10.94,72696.5,-4.65,-6.19,-5.97,0,*5D
1508738457.86,28985,10.94,72702.5,-4.65,-5.97,-5.81,0,*5E
1508738459.08,28986,10.94,72706.3,-4.65,-6.19,-6.05,0,*57
1508738460.31,28987,10.94,72700.3,-4.65,-6.09,-5.85,0,*5C
1508738461.55,28988,10.94,72720.3,-4.63,-5.97,-5.81,0,*55
1508738462.82,28989,10.94,72716.0,-4.63,-5.85,-5.73,0,*5A
1508738464.08,28990,10.94,72708.5,-4.63,-5.73,-5.61,0,*58
1508738465.34,28991,10.94,72726.8,-4.63,-5.73,-5.69,0,*51
1508738466.6,28992,10.94,72720.3,-4.63,-5.73,-5.69,0,*52
1508738467.87,28993,10.94,72706.0,-4.63,-5.73,-5.61,0,*5B
1508738469.13,28994,10.94,72708.8,-4.63,-5.81,-5.69,0,*59
1508738470.4,28995,10.94,72700.8,-4.63,-5.81,-5.69,0,*58
1508738471.67,28996,10.94,72714.8,-4.63,-5.81,-5.61,0,*53
1508738472.94,28997,10.94,72712.5,-4.63,-5.73,-5.61,0,*5F
1508738474.18,28998,10.94,72724.0,-4.63,-5.73,-5.55,0,*57
1508738475.45,28999,10.94,72724.0,-4.63,-5.69,-5.61,0,*5A
1508738476.69,29000,10.94,72726.5,-4.63,-5.61,-5.47,0,*5E
1508738477.92,29001,10.94,72724.0,-4.63,-5.61,-5.47,0,*5F
1508738479.19,29002,10.94,72720.3,-4.63,-5.81,-5.73,0,*55
1508738480.44,29003,10.94,72714.0,-4.61,-5.89,-5.81,0,*53
1508738481.71,29004,10.94,72722.8,-4.63,-5.85,-5.81,0,*5A
1508738482.95,29005,10.94,72716.5,-4.63,-5.97,-5.81,0,*58
1508738484.22,29006,10.94,72706.3,-4.63,-5.85,-5.81,0,*58
1508738485.45,29007,10.94,72704.5,-4.61,-5.69,-5.55,0,*50
1508738486.69,29008,10.94,72698.5,-4.63,-5.69,-5.55,0,*5D
1508738487.96,29009,10.94,72706.5,-4.63,-5.81,-5.73,0,*5E
1508738489.22,29010,10.94,72692.8,-4.63,-5.93,-5.73,0,*55
1508738490.49,29011,10.94,72694.8,-4.63,-5.85,-5.73,0,*53
1508738491.74,29012,10.94,72704.0,-4.61,-5.81,-5.69,0,*5D
1508738493.0,29013,10.94,72722.0,-4.63,-5.85,-5.73,0,*51
1508738494.27,29014,10.94,72718.0,-4.63,-5.73,-5.61,0,*5C
1508738495.49,29015,10.94,72720.5,-4.61,-5.65,-5.43,0,*58
1508738496.74,29016,10.94,72712.5,-4.63,-5.69,-5.55,0,*52
1508738497.97,29017,10.94,72704.5,-4.63,-5.61,-5.47,0,*58
1508738499.21,29018,10.94,72706.8,-4.63,-5.69,-5.47,0,*5F
1508738500.46,29019,10.94,72706.5,-4.63,-5.69,-5.55,0,*5D
1508738501.7,29020,10.94,72724.0,-4.63,-5.69,-5.47,0,*54
1508738502.93,29021,10.94,72734.5,-4.61,-5.77,-5.55,0,*5B
1508738504.18,29022,10.94,72712.0,-4.61,-5.69,-5.65,0,*54
1508738505.4,29023,10.94,72702.3,-4.61,-5.65,-5.51,0,*5E
1508738506.6,29024,10.94,72714.0,-4.61,-5.55,-5.51,0,*5A
1508738507.83,29025,10.94,72718.8,-4.61,-5.65,-5.51,0,*58
1508738509.05,29026,10.94,72722.3,-4.61,-5.65,-5.43,0,*58
1508738510.27,29027,10.94,72714.5,-4.61,-5.65,-5.43,0,*59
1508738511.51,29028,10.94,72724.0,-4.63,-5.69,-5.55,0,*5F
1508738512.72,29029,10.94,72724.5,-4.61,-5.55,-5.51,0,*57
1508738513.92,29030,10.94,72716.0,-4.61,-5.55,-5.51,0,*5F
1508738515.14,29031,10.94,72710.3,-4.61,-5.65,-5.43,0,*5E
1508738516.36,29032,10.94,72712.8,-4.63,-5.55,-5.47,0,*58
1508738517.56,29033,10.94,72718.5,-4.61,-5.51,-5.43,0,*5B
1508738518.76,29034,10.94,72724.5,-4.61,-5.55,-5.43,0,*58
1508738520.0,29035,10.94,72730.3,-4.63,-5.65,-5.47,0,*5C
1508738521.2,29036,10.94,72724.3,-4.61,-5.55,-5.43,0,*5A
1508738522.39,29037,10.94,72720.8,-4.61,-5.55,-5.43,0,*5B
1508738523.61,29038,10.94,72714.8,-4.59,-5.55,-5.43,0,*5F
1508738524.84,29039,10.94,72714.3,-4.59,-5.55,-5.51,0,*5D
1508738526.06,29040,10.94,72706.3,-4.59,-5.55,-5.43,0,*50
1508738527.25,29041,10.94,72718.5,-4.61,-5.51,-5.43,0,*5E
1508738528.45,29042,10.94,72714.3,-4.61,-5.51,-5.39,0,*50
1508738529.67,29043,10.94,72704.8,-4.61,-5.77,-5.51,0,*5B
1508738530.9,29044,10.94,72714.3,-4.61,-5.69,-5.51,0,*53
1508738532.14,29045,10.94,72714.0,-4.59,-5.65,-5.43,0,*56
1508738533.38,29046,10.94,72718.8,-4.59,-5.65,-5.43,0,*55
1508738534.62,29047,10.94,72718.8,-4.59,-5.65,-5.51,0,*57
1508738535.84,29048,10.94,72720.5,-4.59,-5.55,-5.43,0,*58
1508738537.06,29049,10.94,72720.0,-4.59,-5.55,-5.43,0,*59
1508738538.28,29050,10.94,72722.8,-4.59,-5.55,-5.43,0,*51
1508738539.49,29051,10.94,72718.0,-4.57,-5.61,-5.39,0,*54
1508738540.73,29052,10.94,72720.8,-4.59,-5.65,-5.43,0,*50
1508738541.93,29053,10.94,72722.8,-4.57,-5.51,-5.47,0,*5C
1508738543.17,29054,10.94,72720.5,-4.59,-5.69,-5.51,0,*59
1508738544.42,29055,10.94,72722.0,-4.59,-5.77,-5.55,0,*53
1508738545.67,29056,10.94,72726.3,-4.59,-5.77,-5.55,0,*50
1508738546.89,29057,10.94,72724.0,-4.57,-5.65,-5.51,0,*58
1508738548.1,29058,10.94,72718.5,-4.57,-5.61,-5.47,0,*54
1508738549.32,29059,10.94,72736.0,-4.59,-5.55,-5.51,0,*5B
1508738550.54,29060,10.94,72736.3,-4.57,-5.73,-5.51,0,*5B
1508738551.81,29061,10.94,72724.5,-4.59,-5.89,-5.69,0,*5A
1508738553.03,29062,10.94,72722.0,-4.57,-5.65,-5.51,0,*5E
1508738554.24,29063,10.94,72724.5,-4.57,-5.61,-5.47,0,*5C
1508738555.48,29064,10.94,72716.5,-4.57,-5.73,-5.61,0,*5C
1508738556.69,29065,10.94,72712.0,-4.57,-5.61,-5.47,0,*5A
1508738557.91,29066,10.94,72710.8,-4.57,-5.61,-5.51,0,*5E
1508738559.16,29067,10.94,72702.8,-4.59,-5.77,-5.55,0,*52
1508738560.41,29068,10.94,72706.5,-4.57,-5.65,-5.61,0,*57
1508738561.65,29069,10.94,72704.0,-4.57,-5.73,-5.61,0,*51
1508738562.86,29070,10.94,72718.5,-4.57,-5.73,-5.51,0,*5A
1508738564.06,29071,10.94,72722.3,-4.57,-5.51,-5.47,0,*5C
1508738565.25,29072,10.94,72708.5,-4.57,-5.47,-5.47,0,*58
1508738566.47,29073,10.94,72720.3,-4.59,-5.55,-5.43,0,*50
1508738567.68,29074,10.94,72722.8,-4.57,-5.61,-5.39,0,*53
1508738568.88,29075,10.94,72722.8,-4.57,-5.47,-5.39,0,*56
1508738570.07,29076,10.94,72724.3,-4.57,-5.51,-5.39,0,*52
1508738571.31,29077,10.94,72722.3,-4.59,-5.65,-5.47,0,*53
1508738572.53,29078,10.94,72722.5,-4.59,-5.55,-5.39,0,*56
1508738573.72,29079,10.94,72726.8,-4.57,-5.47,-5.35,0,*56
1508738574.97,29080,10.94,72726.8,-4.59,-5.69,-5.55,0,*54
1508738576.19,29081,10.94,72722.0,-4.57,-5.61,-5.47,0,*50
1508738577.4,29082,10.94,72722.5,-4.57,-5.61,-5.51,0,*54
1508738578.6,29083,10.94,72720.3,-4.57,-5.51,-5.51,0,*56
1508738579.8,29084,10.94,72718.8,-4.57,-5.47,-5.39,0,*58
1508738581.01,29085,10.94,72718.5,-4.57,-5.65,-5.47,0,*50
1508738582.23,29086,10.94,72726.5,-4.57,-5.65,-5.47,0,*53
1508738583.42,29087,10.94,72724.3,-4.57,-5.51,-5.39,0,*5C
1508738584.64,29088,10.94,72718.0,-4.57,-5.61,-5.47,0,*59
1508738585.88,29089,10.94,72712.0,-4.57,-5.85,-5.65,0,*52
1508738587.15,29090,10.94,72716.5,-4.55,-5.77,-5.65,0,*55
1508738588.37,29091,10.94,72710.8,-4.57,-5.65,-5.51,0,*52
1508738589.61,29092,10.94,72706.8,-4.57,-5.73,-5.61,0,*55
1508738590.85,29093,10.94,72710.3,-4.57,-5.73,-5.61,0,*54
1508738592.1,29094,10.94,72718.3,-4.59,-5.69,-5.55,0,*51
1508738593.35,29095,10.94,72724.0,-4.57,-5.65,-5.61,0,*55
1508738594.57,29096,10.94,72726.8,-4.57,-5.65,-5.47,0,*52
1508738595.79,29097,10.94,72724.3,-4.57,-5.65,-5.51,0,*54
1508738597.03,29098,10.94,72720.8,-4.57,-5.65,-5.61,0,*58
1508738598.25,29099,10.94,72720.0,-4.57,-5.65,-5.51,0,*5A
1508738599.5,29100,10.94,72716.3,-4.59,-5.69,-5.55,0,*5D
1508738600.74,29101,10.94,72728.3,-4.57,-5.73,-5.61,0,*5E
1508738601.96,29102,10.94,72724.5,-4.57,-5.65,-5.51,0,*59
1508738603.21,29103,10.94,72716.5,-4.57,-5.85,-5.73,0,*56
1508738604.45,29104,10.94,72734.0,-4.57,-5.77,-5.65,0,*5B
1508738605.69,29105,10.94,72724.8,-4.57,-5.77,-5.69,0,*56
1508738606.91,29106,10.94,72724.8,-4.57,-5.65,-5.51,0,*5D
1508738608.13,29107,10.94,72720.0,-4.57,-5.61,-5.51,0,*58
1508738609.38,29108,10.94,72716.5,-4.57,-5.65,-5.61,0,*50
1508738610.6,29109,10.94,72726.8,-4.57,-5.65,-5.51,0,*52
1508738611.79,29110,10.94,72726.0,-4.57,-5.51,-5.39,0,*53
1508738612.99,29111,10.94,72722.0,-4.57,-5.51,-5.39,0,*52
1508738614.2,29112,10.94,72726.3,-4.57,-5.61,-5.39,0,*52
1508738615.42,29113,10.94,72724.3,-4.57,-5.65,-5.47,0,*5E
1508738616.67,29114,10.94,72724.8,-4.59,-5.69,-5.55,0,*58
1508738617.89,29115,10.94,72720.0,-4.57,-5.65,-5.51,0,*5F
1508738619.13,29116,10.94,72718.8,-4.57,-5.65,-5.61,0,*5F
1508738620.4,29117,10.94,72714.8,-4.59,-5.77,-5.65,0,*57
1508738621.65,29118,10.94,72720.3,-4.57,-5.77,-5.61,0,*52
1508738622.87,29119,10.94,72720.8,-4.57,-5.77,-5.51,0,*50
1508738624.09,29120,10.94,72720.5,-4.57,-5.65,-5.39,0,*57
1508738625.28,29121,10.94,72712.0,-4.57,-5.51,-5.39,0,*51
1508738626.52,29122,10.94,72714.8,-4.55,-5.61,-5.47,0,*5A
1508738627.76,29123,10.94,72718.8,-4.55,-5.65,-5.51,0,*58
1508738629.0,29124,10.94,72724.0,-4.55,-5.65,-5.51,0,*5F
1508738630.24,29125,10.94,72716.5,-4.55,-5.61,-5.39,0,*54
1508738631.46,29126,10.94,72720.5,-4.57,-5.73,-5.51,0,*58
1508738632.72,29127,10.94,72720.5,-4.55,-5.77,-5.65,0,*58
1508738633.95,29128,10.94,72714.8,-4.55,-5.73,-5.47,0,*53
1508738635.2,29129,10.94,72708.0,-4.55,-5.65,-5.47,0,*55
1508738636.44,29130,10.94,72710.0,-4.55,-5.65,-5.47,0,*5D
1508738637.68,29131,10.94,72698.3,-4.55,-5.65,-5.51,0,*5B
1508738638.92,29132,10.94,72702.0,-4.55,-5.65,-5.47,0,*5F
1508738640.15,29133,10.94,72708.8,-4.55,-5.73,-5.47,0,*59
1508738641.42,29134,10.94,72710.3,-4.55,-5.85,-5.73,0,*50
1508738642.69,29135,10.94,72712.3,-4.55,-5.77,-5.61,0,*5F
1508738643.94,29136,10.94,72722.8,-4.57,-5.85,-5.61,0,*53
1508738645.18,29137,10.94,72714.0,-4.55,-5.65,-5.39,0,*53
1508738646.42,29138,10.94,72722.3,-4.55,-5.61,-5.47,0,*51
1508738647.68,29139,10.94,72720.3,-4.55,-5.73,-5.61,0,*57
1508738648.92,29140,10.94,72720.0,-4.55,-5.73,-5.51,0,*5A
1508738650.18,29141,10.94,72718.8,-4.55,-5.73,-5.61,0,*58
1508738651.42,29142,10.94,72720.0,-4.55,-5.61,-5.47,0,*5C
1508738652.65,29143,10.94,72720.5,-4.55,-5.61,-5.47,0,*5D
1508738653.89,29144,10.94,72708.5,-4.55,-5.61,-5.39,0,*53
1508738655.13,29145,10.94,72702.8,-4.55,-5.61,-5.51,0,*5C
1508738656.38,29146,10.94,72708.8,-4.55,-5.65,-5.51,0,*5B
1508738657.62,29147,10.94,72714.5,-4.55,-5.65,-5.51,0,*5A
1508738658.84,29148,10.94,72716.5,-4.55,-5.51,-5.39,0,*5C
1508738660.05,29149,10.94,72724.0,-4.55,-5.39,-5.39,0,*53
1508738661.27,29150,10.94,72718.3,-4.55,-5.51,-5.39,0,*55
1508738662.49,29151,10.94,72708.0,-4.51,-5.47,-5.39,0,*57
1508738663.71,29152,10.94,72708.0,-4.51,-5.55,-5.35,0,*5B
1508738664.95,29153,10.94,72710.3,-4.55,-5.61,-5.47,0,*5C
1508738666.19,29154,10.94,72706.8,-4.51,-5.61,-5.43,0,*5B
1508738667.4,29155,10.94,72718.8,-4.55,-5.51,-5.47,0,*59
1508738668.63,29156,10.94,72720.5,-4.51,-5.55,-5.43,0,*5E
1508738669.84,29157,10.94,72718.5,-4.55,-5.51,-5.39,0,*52
1508738671.08,29158,10.94,72724.8,-4.55,-5.65,-5.47,0,*53
1508738672.32,29159,10.94,72726.8,-4.55,-5.61,-5.39,0,*5F
1508738673.56,29160,10.94,72716.3,-4.55,-5.61,-5.47,0,*5C
1508738674.79,29161,10.94,72722.8,-4.55,-5.61,-5.47,0,*5D
1508738676.03,29162,10.94,72720.0,-4.55,-5.61,-5.39,0,*57
1508738677.28,29163,10.94,72728.0,-4.51,-5.35,-5.31,0,*5B
1508738678.51,29164,10.94,72728.5,-4.55,-5.61,-5.39,0,*51
1508738679.73,29165,10.94,72722.0,-4.55,-5.51,-5.39,0,*53
1508738680.95,29166,10.94,72724.8,-4.55,-5.51,-5.39,0,*50
1508738682.18,29167,10.94,72718.0,-4.55,-5.61,-5.47,0,*5B
1508738683.4,29168,10.94,72728.8,-4.51,-5.47,-5.35,0,*51
1508738684.62,29169,10.94,72722.5,-4.55,-5.51,-5.39,0,*5F
1508738685.84,29170,10.94,72718.0,-4.55,-5.51,-5.39,0,*57
1508738687.08,29171,10.94,72724.3,-4.55,-5.47,-5.31,0,*59
1508738688.32,29172,10.94,72720.0,-4.55,-5.39,-5.31,0,*53
1508738689.6,29173,10.94,72726.8,-4.51,-5.31,-5.27,0,*59
1508738690.88,29174,10.94,72730.5,-4.51,-5.31,-5.27,0,*5E
1508738692.15,29175,10.94,72728.0,-4.51,-5.31,-5.31,0,*58
1508738693.4,29176,10.94,72730.0,-4.51,-5.35,-5.31,0,*5F
1508738694.64,29177,10.94,72726.3,-4.51,-5.35,-5.31,0,*5E
1508738695.86,29178,10.94,72732.0,-4.55,-5.39,-5.35,0,*5D
1508738697.07,29179,10.94,72730.8,-4.55,-5.51,-5.39,0,*5E
1508738698.3,29180,10.94,72732.5,-4.51,-5.55,-5.43,0,*55
1508738699.51,29181,10.94,72726.3,-4.51,-5.47,-5.35,0,*56
1508738700.73,29182,10.94,72724.0,-4.51,-5.43,-5.35,0,*51
1508738701.97,29183,10.94,72728.8,-4.51,-5.43,-5.31,0,*54
1508738703.22,29184,10.94,72728.3,-4.51,-5.35,-5.27,0,*55
1508738704.47,29185,10.94,72728.5,-4.51,-5.47,-5.31,0,*56
1508738705.68,29186,10.94,72734.8,-4.51,-5.43,-5.35,0,*55
1508738706.89,29187,10.94,72732.8,-4.51,-5.43,-5.35,0,*54
1508738708.11,29188,10.94,72732.8,-4.51,-5.47,-5.35,0,*5F
1508738709.33,29189,10.94,72736.5,-4.51,-5.35,-5.35,0,*5B
1508738710.57,29190,10.94,72734.0,-4.51,-5.43,-5.31,0,*56
1508738711.81,29191,10.94,72734.0,-4.51,-5.35,-5.31,0,*56
1508738713.06,29192,10.94,72726.0,-4.51,-5.35,-5.31,0,*55
1508738714.31,29193,10.94,72734.5,-4.51,-5.47,-5.31,0,*51
1508738715.53,29194,10.94,72730.0,-4.51,-5.55,-5.35,0,*51
1508738716.74,29195,10.94,72732.5,-4.51,-5.43,-5.35,0,*57
1508738717.99,29196,10.94,72732.5,-4.51,-5.35,-5.31,0,*51
1508738719.23,29197,10.94,72734.8,-4.51,-5.43,-5.31,0,*51
1508738720.44,29198,10.94,72742.0,-4.51,-5.43,-5.35,0,*5A
1508738721.66,29199,10.94,72746.5,-4.51,-5.43,-5.35,0,*5B
1508738722.93,29200,10.94,72740.3,-4.51,-5.31,-5.27,0,*5E
1508738724.21,29201,10.94,72738.3,-4.51,-5.31,-5.31,0,*58
1508738725.45,29202,10.94,72742.0,-4.51,-5.35,-5.31,0,*5F
1508738726.7,29203,10.94,72742.8,-4.51,-5.35,-5.31,0,*5E
1508738727.94,29204,10.94,72738.8,-4.51,-5.43,-5.31,0,*58
1508738729.15,29205,10.94,72740.8,-4.51,-5.43,-5.35,0,*5D
1508738730.37,29206,10.94,72738.8,-4.51,-5.35,-5.35,0,*5F
1508738731.58,29207,10.94,72738.0,-4.51,-5.43,-5.43,0,*5E
1508738732.8,29208,10.94,72740.8,-4.51,-5.47,-5.43,0,*55
1508738734.01,29209,10.94,72742.3,-4.51,-5.43,-5.35,0,*51
1508738735.23,29210,10.94,72742.0,-4.51,-5.55,-5.43,0,*5F
1508738736.5,29211,10.94,72742.0,-4.51,-5.73,-5.69,0,*52
1508738737.76,29212,10.94,72734.3,-4.51,-5.81,-5.73,0,*57
1508738739.0,29213,10.94,72722.5,-4.51,-6.05,-5.93,0,*57
1508738740.22,29214,10.94,72720.0,-4.51,-6.09,-5.97,0,*58
1508738741.49,29215,10.94,72718.0,-4.51,-5.73,-5.61,0,*5E
1508738742.73,29216,10.94,72714.5,-4.51,-5.61,-5.47,0,*5A
1508738743.98,29217,10.94,72702.5,-4.51,-5.61,-5.55,0,*58
1508738745.22,29218,10.94,72698.5,-4.51,-5.61,-5.43,0,*50
1508738746.46,29219,10.94,72696.3,-4.51,-5.61,-5.43,0,*51
1508738747.69,29220,10.94,72700.3,-4.51,-5.61,-5.35,0,*5A
1508738748.94,29221,10.94,72702.8,-4.55,-5.65,-5.51,0,*59
1508738750.21,29222,10.94,72698.0,-4.51,-5.81,-5.61,0,*57
1508738751.48,29223,10.94,72698.3,-4.51,-5.93,-5.73,0,*56
1508738752.73,29224,10.94,72706.5,-4.55,-5.97,-5.85,0,*58
1508738753.94,29225,10.94,72700.0,-4.51,-6.05,-5.97,0,*56
1508738755.18,29226,10.94,72702.8,-4.51,-5.97,-5.93,0,*59
1508738756.4,29227,10.94,72698.0,-4.55,-6.09,-5.97,0,*5C
1508738757.64,29228,10.94,72698.0,-4.51,-6.05,-5.81,0,*5C
1508738758.88,29229,10.94,72690.5,-4.55,-6.09,-5.89,0,*5D
1508738760.15,29230,10.94,72700.3,-4.55,-5.89,-5.77,0,*5F
1508738761.41,29231,10.94,72718.3,-4.55,-5.73,-5.65,0,*58
1508738762.67,29232,10.94,72710.5,-4.55,-5.73,-5.61,0,*5F
1508738763.91,29233,10.94,72718.3,-4.55,-5.77,-5.51,0,*59
1508738765.16,29234,10.94,72706.8,-4.55,-5.77,-5.51,0,*5E
1508738766.4,29235,10.94,72714.0,-4.55,-5.65,-5.51,0,*5C
1508738767.65,29236,10.94,72722.3,-4.51,-5.69,-5.55,0,*53
1508738768.92,29237,10.94,72720.3,-4.55,-5.77,-5.61,0,*5E
1508738770.16,29238,10.94,72732.3,-4.55,-6.01,-5.85,0,*59
1508738771.41,29239,10.94,72724.5,-4.51,-5.61,-5.47,0,*57
1508738772.64,29240,10.94,72728.5,-4.55,-5.61,-5.39,0,*54
1508738773.89,29241,10.94,72728.0,-4.51,-5.69,-5.55,0,*53
1508738775.16,29242,10.94,72724.3,-4.55,-5.77,-5.61,0,*5C
1508738776.43,29243,10.94,72726.5,-4.55,-5.85,-5.73,0,*53
1508738777.69,29244,10.94,72730.5,-4.55,-5.85,-5.73,0,*54
1508738778.94,29245,10.94,72720.0,-4.55,-5.97,-5.85,0,*5F
1508738780.15,29246,10.94,72716.3,-4.55,-6.09,-6.01,0,*57
1508738781.39,29247,10.94,72714.0,-4.51,-6.23,-6.05,0,*5E
1508738782.64,29248,10.94,72708.3,-4.55,-6.01,-5.85,0,*5E
1508738783.9,29249,10.94,72700.0,-4.55,-5.89,-5.73,0,*55
1508738785.17,29250,10.94,72698.8,-4.55,-5.85,-5.61,0,*52
1508738786.42,29251,10.94,72700.3,-4.57,-5.77,-5.61,0,*5C
1508738787.67,29252,10.94,72696.3,-4.57,-5.85,-5.61,0,*52
1508738788.92,29253,10.94,72698.5,-4.55,-5.97,-5.85,0,*58
1508738790.15,29254,10.94,72702.0,-4.55,-6.23,-6.01,0,*5C
1508738791.39,29255,10.94,72694.3,-4.55,-6.77,-6.63,0,*58
1508738792.58,29256,10.94,72694.3,-4.57,-6.81,-6.69,0,*5A
1508738793.8,29257,10.94,72684.0,-4.59,-6.55,-6.31,0,*51
1508738795.05,29258,10.94,72688.3,-4.59,-6.31,-6.19,0,*56
1508738796.28,29259,10.94,72696.0,-4.59,-6.27,-6.05,0,*5D
1508738797.52,29260,10.94,72704.5,-4.59,-6.05,-5.93,0,*5B
1508738798.74,29261,10.94,72702.3,-4.59,-6.35,-6.31,0,*52
1508738799.98,29262,10.94,72696.0,-4.59,-6.35,-6.27,0,*56
1508738801.2,29263,10.94,72694.0,-4.59,-6.69,-6.47,0,*58
1508738802.39,29264,10.94,72696.3,-4.61,-6.69,-6.47,0,*54
1508738803.61,29265,10.94,72696.5,-4.61,-6.43,-6.27,0,*5B
1508738804.87,29266,10.94,72692.0,-4.63,-6.23,-5.93,0,*50
1508738806.09,29267,10.94,72684.3,-4.61,-6.13,-5.89,0,*5B
1508738807.34,29268,10.94,72688.3,-4.63,-5.97,-5.85,0,*55
1508738808.55,29269,10.94,72694.0,-4.61,-6.05,-5.73,0,*57
1508738809.78,29270,10.94,72692.3,-4.61,-6.01,-5.89,0,*5E
1508738811.02,29271,10.94,72696.8,-4.63,-6.05,-5.85,0,*55
1508738812.24,29272,10.94,72698.8,-4.61,-6.01,-5.81,0,*54
1508738813.45,29273,10.94,72698.3,-4.61,-6.27,-6.13,0,*59
1508738814.67,29274,10.94,72696.3,-4.61,-6.27,-6.05,0,*59
1508738815.86,29275,10.94,72704.8,-4.61,-6.31,-6.13,0,*58
1508738817.08,29276,10.94,72700.5,-4.61,-6.31,-6.19,0,*51
1508738818.33,29277,10.94,72700.3,-4.63,-6.35,-6.19,0,*56
1508738819.54,29278,10.94,72700.5,-4.61,-6.05,-5.77,0,*53
1508738820.77,29279,10.94,72702.5,-4.61,-6.09,-5.85,0,*53
1508738821.99,29280,10.94,72696.5,-4.61,-6.05,-5.81,0,*5D
1508738823.26,29281,10.94,72702.0,-4.63,-5.85,-5.81,0,*55
1508738824.5,29282,10.94,72712.3,-4.63,-6.05,-5.81,0,*5D
1508738825.74,29283,10.94,72714.5,-4.63,-5.97,-5.85,0,*50
1508738826.98,29284,10.94,72716.8,-4.63,-6.05,-5.85,0,*5F
1508738828.21,29285,10.94,72716.5,-4.61,-6.05,-5.85,0,*5C
1508738829.4,29286,10.94,72718.5,-4.61,-6.13,-6.05,0,*53
1508738830.62,29287,10.94,72716.5,-4.61,-6.05,-5.93,0,*59
1508738831.83,29288,10.94,72726.0,-4.63,-6.09,-5.97,0,*5C
1508738833.1,29289,10.94,72722.0,-4.63,-5.85,-5.73,0,*50
1508738834.34,29290,10.94,72718.3,-4.61,-5.89,-5.81,0,*5B
1508738835.61,29291,10.94,72724.3,-4.63,-5.85,-5.73,0,*59
1508738836.85,29292,10.94,72726.5,-4.63,-6.05,-5.81,0,*5C
1508738838.09,29293,10.94,72724.0,-4.63,-6.09,-5.93,0,*52
1508738839.36,29294,10.94,72726.0,-4.59,-5.89,-5.69,0,*52
1508738840.63,29295,10.94,72726.3,-4.63,-5.85,-5.73,0,*5D
1508738841.87,29296,10.94,72732.5,-4.61,-5.81,-5.69,0,*53
1508738843.09,29297,10.94,72732.8,-4.61,-6.01,-5.81,0,*5F
1508738844.32,29298,10.94,72730.0,-4.61,-6.13,-5.93,0,*50
1508738845.53,29299,10.94,72724.0,-4.61,-6.05,-5.93,0,*56
1508738846.78,29300,10.94,72726.5,-4.63,-6.09,-5.93,0,*59
1508738848.03,29301,10.94,72720.5,-4.61,-5.89,-5.69,0,*54
1508738849.29,29302,10.94,72726.3,-4.63,-5.85,-5.73,0,*52
1508738850.52,29303,10.94,72730.8,-4.61,-5.77,-5.55,0,*58
1508738851.74,29304,10.94,72736.0,-4.61,-5.77,-5.51,0,*5B
1508738852.99,29305,10.94,72732.8,-4.61,-5.89,-5.77,0,*5F
1508738854.23,29306,10.94,72730.0,-4.61,-5.81,-5.77,0,*54
1508738855.45,29307,10.94,72726.3,-4.61,-5.69,-5.51,0,*57
1508738856.68,29308,10.94,72720.3,-4.61,-5.69,-5.55,0,*5C
1508738857.93,29309,10.94,72722.5,-4.59,-5.69,-5.55,0,*56
1508738859.19,29310,10.94,72722.0,-4.59,-5.69,-5.65,0,*5D
1508738860.46,29311,10.94,72730.3,-4.59,-5.77,-5.65,0,*53
1508738861.73,29312,10.94,72730.5,-4.59,-5.81,-5.69,0,*55
1508738862.98,29313,10.94,72736.3,-4.59,-5.69,-5.55,0,*5D
1508738864.22,29314,10.94,72732.8,-4.59,-5.69,-5.51,0,*5E
1508738865.49,29315,10.94,72734.8,-4.59,-5.77,-5.65,0,*57
1508738866.73,29316,10.94,72736.5,-4.59,-5.69,-5.51,0,*5C
1508738867.98,29317,10.94,72742.0,-4.57,-5.77,-5.61,0,*5F
1508738869.22,29318,10.94,72736.3,-4.59,-5.69,-5.55,0,*56
1508738870.47,29319,10.94,72730.5,-4.59,-5.81,-5.55,0,*51
1508738871.74,29320,10.94,72730.3,-4.59,-5.81,-5.65,0,*58
1508738872.98,29321,10.94,72730.3,-4.57,-5.85,-5.77,0,*50
1508738874.25,29322,10.94,72724.8,-4.59,-5.89,-5.69,0,*5E
1508738875.52,29323,10.94,72720.0,-4.59,-5.77,-5.65,0,*52
1508738876.76,29324,10.94,72724.5,-4.59,-5.69,-5.55,0,*59
1508738878.03,29325,10.94,72730.8,-4.59,-5.69,-5.65,0,*5B
1508738879.27,29326,10.94,72738.3,-4.61,-5.77,-5.65,0,*5C
1508738880.47,29327,10.94,72736.0,-4.61,-6.13,-6.01,0,*5D
1508738881.74,29328,10.94,72746.0,-4.59,-5.93,-5.81,0,*59
1508738882.96,29329,10.94,72748.0,-4.57,-5.77,-5.51,0,*51
1508738884.21,29330,10.94,72746.0,-4.59,-5.69,-5.55,0,*5C
1508738885.47,29331,10.94,72730.8,-4.59,-5.89,-5.77,0,*53
1508738886.73,29332,10.94,72730.3,-4.59,-5.89,-5.77,0,*50
1508738888.0,29333,10.94,72726.3,-4.59,-5.93,-5.69,0,*55
1508738889.25,29334,10.94,72722.3,-4.59,-6.01,-5.89,0,*54
1508738890.51,29335,10.94,72718.5,-4.59,-5.89,-5.69,0,*58
1508738891.78,29336,10.94,72716.5,-4.59,-5.81,-5.69,0,*53
1508738893.05,29337,10.94,72732.5,-4.59,-5.77,-5.65,0,*57
1508738894.29,29338,10.94,72736.8,-4.59,-5.77,-5.55,0,*5B
1508738895.54,29339,10.94,72740.0,-4.59,-5.69,-5.55,0,*55
1508738896.81,29340,10.94,72726.3,-4.59,-5.77,-5.69,0,*5B
1508738898.08,29341,10.94,72734.8,-4.59,-5.81,-5.65,0,*5F
1508738899.3,29342,10.94,72732.8,-4.57,-5.65,-5.51,0,*5F
1508738900.54,29343,10.94,72728.5,-4.57,-5.77,-5.61,0,*5E
1508738901.81,29344,10.94,72730.3,-4.59,-5.77,-5.65,0,*53
1508738903.06,29345,10.94,72734.0,-4.59,-5.69,-5.55,0,*5E
1508738904.3,29346,10.94,72734.0,-4.57,-5.77,-5.61,0,*5B
1508738905.57,29347,10.94,72732.5,-4.59,-5.89,-5.77,0,*52
1508738906.81,29348,10.94,72738.0,-4.57,-5.77,-5.65,0,*51
1508738908.08,29349,10.94,72726.5,-4.59,-5.89,-5.65,0,*5F
1508738909.34,29350,10.94,72720.3,-4.59,-5.81,-5.77,0,*5C
1508738910.61,29351,10.94,72708.8,-4.59,-5.77,-5.69,0,*5B
1508738911.87,29352,10.94,72712.0,-4.59,-5.81,-5.77,0,*5E